Weather at Augsburg Airport

Public forecast

Using degrees Celsius for public forecast. Weather courtesy of forecast.io.

Current aviation weather report (METAR) for Augsburg Airport

Retrieved 2022/06/28 23:50 UTC (21 minutes ago):

EDMA 282350Z AUTO VRB01KT 9999 FEW190/// BKN220/// 16/15 Q1016

Aviation forecast (TAF) for Augsburg Airport

Forecast is more than 12 hours old.

Retrieved 2009/12/02 06:00 UTC (13 years ago):

TAF COR EDMA 020600Z 0206/0220 VRB03KT 3000 BR SCT004 PROB40 TEMPO 0206/0208 0600 FG VV002 BECMG 0208/0210 9999